Torna al catalogo

COSMOS 2251 DEB

AttivoLEO
NORAD 34857·DEBRIS·🇷🇺 Russia

Lanciato Jun 16, 1993 da Plesetsk Cosmodrome

Loading…

Prossimi Passaggi (prossime 24 ore)

TLE

AggiornatoSource: Space-Track

Epoca: Sep 14, 2026, 13:49 UTC

1 34857U 93036ACB 26257.57583334  .00001752  00000-0  35532-3 0  9994
2 34857  74.0130 299.7758 0064857 353.1810 158.3532 14.60696511919265

Traccia COSMOS 2251 DEB in tempo reale con AllMySat

Download on the App Store